Lampasas, TX

6:39 AM CST on February 28, 2017 (GMT -0600)
Lampasas

Weather History for KLZZ - January, 2013

Change the Weather History Date:

Tuesday, January 29, 2013

  Actual Average (KGRK) Record (KGRK)
Temperature  
Mean Temperature 66 °F -  
Max Temperature 78 °F 59 °F 80 °F (2013)
Min Temperature 53 °F 38 °F 23 °F (1997)
Growing Degree Days 16 (Base 50)    
Moisture  
Dew Point 53 °F    
Average Humidity 64    
Maximum Humidity 88    
Minimum Humidity 26    
Precipitation  
Precipitation 0.05 in - - ()
Sea Level Pressure  
Sea Level Pressure 29.70 in    
Wind  
Wind Speed 13 mph (SSW)    
Max Wind Speed 23 mph    
Max Gust Speed 34 mph    
Visibility 10 miles    
Events Rain    
Averages and records for this station are not official NWS values.
T = Trace of Precipitation, MM = Missing Value Source: NWS Daily Summary

Daily Weather History Graph

Daily Weather History Graph

Search for Another Location

Airport or City:

Trip Planner

Search our weather history database for the weather conditions in past years. The results will help you decide how hot, cold, wet, or windy it might be!

Date:

Astronomy

Jan. 29, 2013 Rise Set
Actual Time 7:26 AM CST 6:05 PM CST
Civil Twilight 7:00 AM CST 6:31 PM CST
Nautical Twilight 6:31 AM CST 7:00 PM CST
Astronomical Twilight 6:03 AM CST 7:29 PM CST
Moon 8:47 PM CST (1/29) 8:37 AM CST (1/29)
Length of Visible Light 11h 30m
Length of Day
10h 39m
Waning Gibbous, 93% of the Moon is Illuminated
Jan 29
Waning Gibbous
Feb 3
Last Quarter
Feb 10
New
Feb 17
First Quarter
Feb 25
Full

Hourly Weather History & Observations

Time (CST) Temp. Dew Point Humidity Pressure Visibility Wind Dir Wind Speed Gust Speed Precip Events Conditions
12:15 AM 69.8 °F 64.4 °F 83% 29.87 in 10.0 mi South 12.7 mph 18.4 mph N/A   Overcast
12:35 AM 69.8 °F 64.4 °F 83% 29.85 in 10.0 mi SSE 9.2 mph - N/A   Overcast
12:55 AM 69.8 °F 66.2 °F 88% 29.84 in 10.0 mi SSE 12.7 mph 19.6 mph N/A   Overcast
1:15 AM 69.8 °F 66.2 °F 88% 29.82 in 10.0 mi SSE 10.4 mph 20.7 mph N/A   Overcast
1:35 AM 69.8 °F 64.4 °F 83% 29.81 in 10.0 mi SSE 11.5 mph 18.4 mph N/A   Overcast
1:55 AM 69.8 °F 64.4 °F 83% 29.81 in 10.0 mi SSE 16.1 mph 21.9 mph N/A   Mostly Cloudy
2:15 AM 69.8 °F 66.2 °F 88% 29.80 in 10.0 mi SSE 10.4 mph 18.4 mph N/A   Overcast
2:35 AM 69.8 °F 66.2 °F 88% 29.80 in 10.0 mi South 11.5 mph 19.6 mph N/A   Overcast
2:55 AM 69.8 °F 66.2 °F 88% 29.80 in 10.0 mi SSE 10.4 mph 19.6 mph N/A   Overcast
3:15 AM 69.8 °F 66.2 °F 88% 29.79 in 10.0 mi South 10.4 mph 20.7 mph N/A   Overcast
3:35 AM 69.8 °F 66.2 °F 88% 29.79 in 10.0 mi South 9.2 mph 18.4 mph N/A   Overcast
3:55 AM 69.8 °F 66.2 °F 88% 29.78 in 10.0 mi South 15.0 mph 25.3 mph N/A   Overcast
4:15 AM 69.8 °F 64.4 °F 83% 29.77 in 10.0 mi South 19.6 mph 26.5 mph N/A   Overcast
4:35 AM 69.8 °F 64.4 °F 83% 29.76 in 10.0 mi South 15.0 mph 24.2 mph N/A   Overcast
4:55 AM 69.8 °F 64.4 °F 83% 29.76 in 10.0 mi South 17.3 mph 24.2 mph N/A   Mostly Cloudy
5:15 AM 69.8 °F 66.2 °F 88% 29.75 in 10.0 mi South 13.8 mph 24.2 mph N/A   Mostly Cloudy
5:35 AM 69.8 °F 64.4 °F 83% 29.74 in 10.0 mi South 16.1 mph 25.3 mph N/A   Overcast
5:55 AM 69.8 °F 64.4 °F 83% 29.74 in 10.0 mi South 20.7 mph 32.2 mph N/A   Overcast
6:15 AM 69.8 °F 64.4 °F 83% 29.74 in 10.0 mi South 15.0 mph 27.6 mph N/A   Overcast
6:35 AM 69.8 °F 64.4 °F 83% 29.74 in 10.0 mi South 13.8 mph 23.0 mph N/A   Overcast
6:55 AM 69.8 °F 64.4 °F 83% 29.72 in 10.0 mi SSE 13.8 mph 26.5 mph N/A   Mostly Cloudy
7:15 AM 69.8 °F 64.4 °F 83% 29.72 in 10.0 mi SSE 16.1 mph 25.3 mph N/A   Scattered Clouds
7:35 AM 69.8 °F 64.4 °F 83% 29.72 in 10.0 mi South 15.0 mph 21.9 mph N/A   Scattered Clouds
7:55 AM 69.8 °F 64.4 °F 83% 29.72 in 10.0 mi SSE 15.0 mph 21.9 mph N/A   Mostly Cloudy
8:15 AM 69.8 °F 64.4 °F 83% 29.71 in 10.0 mi South 13.8 mph 21.9 mph N/A   Overcast
8:35 AM 69.8 °F 64.4 °F 83% 29.71 in 10.0 mi South 15.0 mph 26.5 mph N/A   Overcast
8:55 AM 69.8 °F 64.4 °F 83% 29.70 in 10.0 mi South 13.8 mph 23.0 mph N/A   Overcast
9:15 AM 69.8 °F 64.4 °F 83% 29.72 in 10.0 mi South 16.1 mph 20.7 mph N/A   Overcast
9:35 AM 69.8 °F 64.4 °F 83% 29.72 in 10.0 mi South 16.1 mph 20.7 mph N/A   Overcast
9:55 AM 69.8 °F 64.4 °F 83% 29.71 in 10.0 mi South 11.5 mph - N/A Rain Light Rain
10:15 AM 69.8 °F 64.4 °F 83% 29.70 in 10.0 mi South 10.4 mph - N/A   Light Drizzle
10:35 AM 69.8 °F 64.4 °F 83% 29.68 in 10.0 mi South 10.4 mph 19.6 mph N/A   Mostly Cloudy
10:55 AM 71.6 °F 64.4 °F 78% 29.67 in 10.0 mi South 13.8 mph 25.3 mph N/A   Mostly Cloudy
11:15 AM 71.6 °F 64.4 °F 78% 29.66 in 10.0 mi South 15.0 mph 19.6 mph N/A   Mostly Cloudy
11:35 AM 73.4 °F 66.2 °F 78% 29.65 in 10.0 mi South 13.8 mph 24.2 mph N/A   Mostly Cloudy
11:55 AM 75.2 °F 64.4 °F 69% 29.63 in 10.0 mi South 16.1 mph 23.0 mph N/A   Overcast
12:15 PM 75.2 °F 62.6 °F 65% 29.61 in 10.0 mi South 16.1 mph 28.8 mph N/A   Mostly Cloudy
12:35 PM 77.0 °F 62.6 °F 61% 29.60 in 10.0 mi South 16.1 mph 25.3 mph N/A   Mostly Cloudy
12:55 PM 77.0 °F 62.6 °F 61% 29.58 in 10.0 mi South 17.3 mph 25.3 mph N/A   Mostly Cloudy
1:15 PM 77.0 °F 62.6 °F 61% 29.57 in 10.0 mi SSW 12.7 mph 25.3 mph N/A   Scattered Clouds
1:35 PM 77.0 °F 62.6 °F 61% 29.56 in 10.0 mi South 15.0 mph 24.2 mph N/A   Scattered Clouds
1:55 PM 77.0 °F 60.8 °F 57% 29.54 in 10.0 mi South 20.7 mph 26.5 mph N/A   Scattered Clouds
2:15 PM 77.0 °F 60.8 °F 57% 29.54 in 10.0 mi South 19.6 mph 24.2 mph N/A   Clear
2:35 PM 77.0 °F 60.8 °F 57% 29.52 in 10.0 mi SSW 18.4 mph 26.5 mph N/A   Clear
2:55 PM 77.0 °F 59.0 °F 54% 29.52 in 10.0 mi South 13.8 mph 25.3 mph N/A   Clear
3:15 PM 78.8 °F 59.0 °F 51% 29.56 in 10.0 mi West 23.0 mph 33.4 mph N/A   Scattered Clouds
3:35 PM 69.8 °F 44.6 °F 40% 29.57 in 10.0 mi West 21.9 mph 34.5 mph N/A   Mostly Cloudy
3:55 PM 62.6 °F 50.0 °F 63% 29.58 in 10.0 mi WNW 13.8 mph 20.7 mph 0.04 in Rain Light Rain
4:15 PM 64.4 °F 46.4 °F 52% 29.60 in 10.0 mi West 11.5 mph 18.4 mph N/A   Scattered Clouds
4:35 PM 64.4 °F 44.6 °F 49% 29.62 in 10.0 mi West 12.7 mph 25.3 mph N/A   Mostly Cloudy
4:55 PM 62.6 °F 41.0 °F 45% 29.63 in 10.0 mi WNW 19.6 mph 31.1 mph N/A Rain Light Rain
5:15 PM 60.8 °F 41.0 °F 48% 29.66 in 10.0 mi WNW 19.6 mph 25.3 mph N/A   Mostly Cloudy
5:35 PM 60.8 °F 39.2 °F 45% 29.65 in 10.0 mi WNW 10.4 mph 17.3 mph N/A   Mostly Cloudy
5:55 PM 60.8 °F 37.4 °F 42% 29.64 in 10.0 mi WNW 9.2 mph 17.3 mph N/A   Mostly Cloudy
6:15 PM 60.8 °F 35.6 °F 39% 29.68 in 10.0 mi West 13.8 mph 21.9 mph N/A Rain Light Rain
6:35 PM 57.2 °F 37.4 °F 48% 29.65 in 10.0 mi WNW 9.2 mph - 0.01 in Rain Light Rain
6:55 PM 57.2 °F 39.2 °F 51% 29.68 in 10.0 mi West 6.9 mph - 0.01 in   Mostly Cloudy
7:15 PM 57.2 °F 35.6 °F 44% 29.68 in 10.0 mi West 5.8 mph - N/A   Overcast
7:35 PM 57.2 °F 35.6 °F 44% 29.69 in 10.0 mi West 9.2 mph 18.4 mph N/A   Mostly Cloudy
7:55 PM 57.2 °F 33.8 °F 41% 29.70 in 10.0 mi West 10.4 mph 20.7 mph N/A   Mostly Cloudy
8:15 PM 57.2 °F 32.0 °F 38% 29.71 in 10.0 mi West 8.1 mph - N/A   Clear
8:35 PM 57.2 °F 28.4 °F 33% 29.72 in 10.0 mi West 11.5 mph 19.6 mph N/A   Clear
8:55 PM 57.2 °F 30.2 °F 36% 29.73 in 10.0 mi West 10.4 mph 16.1 mph N/A   Clear
9:15 PM 57.2 °F 26.6 °F 31% 29.74 in 10.0 mi West 16.1 mph 28.8 mph N/A   Clear
9:35 PM 55.4 °F 21.2 °F 26% 29.74 in 10.0 mi West 16.1 mph 26.5 mph N/A   Clear
9:55 PM 53.6 °F 23.0 °F 30% 29.74 in 10.0 mi West 10.4 mph 19.6 mph N/A   Clear
10:15 PM 53.6 °F 23.0 °F 30% 29.75 in 10.0 mi West 13.8 mph 25.3 mph N/A   Clear
10:35 PM 53.6 °F 21.2 °F 28% 29.76 in 10.0 mi West 17.3 mph 25.3 mph N/A   Clear
10:55 PM 53.6 °F 19.4 °F 26% 29.76 in 10.0 mi West 12.7 mph 26.5 mph N/A   Clear
11:15 PM 53.6 °F 21.2 °F 28% 29.77 in 10.0 mi West 10.4 mph 23.0 mph N/A   Clear
11:35 PM 53.6 °F 19.4 °F 26% 29.78 in 10.0 mi West 11.5 mph 21.9 mph N/A   Clear
11:55 PM 53.6 °F 19.4 °F 26% 29.77 in 10.0 mi West 16.1 mph 25.3 mph N/A   Clear